Location: Camaret
(48.2753°N, 4.5961°W)
Time: 11:58:15
(UTC+00:00)

X-37B - Pass Details

Date: 29 January 2021
Orbit: 383 x 391 km, 45.0° (Epoch: 27 February)

Event Time Altitude Azimuth Distance (km) Brightness Sun altitude
Rises 18:20:28 0° 271° (W) 2,273 6.2 -11.3°
Reaches altitude 10° 18:22:40 10° 261° (W) 1,418 5.0 -11.7°
Maximum altitude 18:25:32 31° 197° (SSW) 711 2.2 -12.1°
Drops below altitude 10° 18:28:24 10° 133° (SE) 1,418 3.1 -12.6°
Enters shadow 18:28:29 10° 132° (SE) 1,447 3.1 -12.6°
